FLOCK 3P-29

Last updated on Wed Feb 14 2018 16:20:34 GMT+0000 (Coordinated Universal Time)

1 42045U 17008DB 18044.90766426 .00001170 00000-0 51341-4 0 9995 2 42045 97.4662 110.4575 0009548 71.0119 289.2152 15.23931330 54513
UTC large
Height (km)
Speed (km/s)
/
Latitude / Longitude
Inclination (degrees)
Orbital Period (minutes)
Azimuth
Elevation
Range (km)
Doppler Factor

Next 0 passes for location: London (51.5072 / 0.1276)

Sorry there are no passes over London.